(264358) = 2004 EU85 = 2000 AY133

Discovered at Socorro on 2000-01-04 by LINEAR.

Orbit

Orbit type: Main Belt

Note: WebGL enabled browser required.

epoch2023-09-13.0
epoch JD2460200.5
perihelion date2021-03-28.01893
perihelion JD2459301.51893
argument of perihelion (°)24.68372
ascending node (°)64.16170
inclination (°)4.28122
eccentricity0.1545118
perihelion distance (AU)1.9676525
Tisserand w.r.t. Jupiter3.6
ΔV w.r.t. Earth (km/sec)8.8
semimajor axis (AU)2.3272384
mean anomaly (°)249.57041
mean daily motion (°/day)0.27761480
aphelion distance (AU)2.687
period (years)3.55
P-vector [x]0.02119861
P-vector [y]0.90442901
P-vector [z]0.42609715
Q-vector [x]-0.99751506
Q-vector [y]-0.00950821
Q-vector [z]0.06980905
absolute magnitude16.82
phase slope0.15
uncertainty0
referenceMPO 778887
observations used652
oppositions13
arc length (days)8684
first opposition used2000
last opposition used2023
residual rms (arc-secs)0.70
perturbers coarse indicatorM-v
perturbers precise indicator003Ek
first observation date used2000-01-03.0
last observation date used2023-10-13.0
computer nameMPCLINUX
JD of orbit computation2456731.448412
perihelion JD uncertainty (days)1.0696E-04
argument of perihelion uncertainty (°)6.4068E-05
ascending node uncertainty (°)5.3842E-05
inclination uncertainty (°)6.8527E-06
eccentricity uncertainty 7.3271E-08
perihelion distance uncertainty (AU)1.7675E-07
Minimum Orbit Intersection Distances (in AU)
for orbit epoch: 2460200.5, reference: E2023-VB5
Mercury1.65907
Venus1.24808
Earth0.98369
Mars0.37269
Jupiter2.50672
Saturn7.08775
Uranus16.1536
Neptune27.5715

Observations

665 total observations over interval: 2000 01 03.31002 – 2023 10 13.285911
These data are available for download (format description).

Date (UT) J2000 RA J2000 Dec Magn Location Ref
2000 01 03.31002 06 45 58.25 +28 09 00.3 18.5   704 – Lincoln Laboratory ETS, New Mexico MPS 16766
2000 01 03.32471 06 45 57.22 +28 09 02.8 18.4   704 – Lincoln Laboratory ETS, New Mexico MPS 16766
2000 01 03.33941 06 45 56.24 +28 09 06.0 18.8   704 – Lincoln Laboratory ETS, New Mexico MPS 16766
2000 01 03.35424 06 45 55.16 +28 09 08.6 18.3   704 – Lincoln Laboratory ETS, New Mexico MPS 16766
2000 01 04.23136 06 44 56.44 +28 12 22.3 18.2   704 – Lincoln Laboratory ETS, New Mexico MPS 9372
2000 01 04.24600 06 44 55.38 +28 12 25.4 18.9   704 – Lincoln Laboratory ETS, New Mexico MPS 9372
2000 01 04.26064 06 44 54.35 +28 12 28.5 18.6   704 – Lincoln Laboratory ETS, New Mexico MPS 9372
2000 01 04.27526 06 44 53.32 +28 12 31.5 18.8   704 – Lincoln Laboratory ETS, New Mexico MPS 9372
2000 01 04.28993 06 44 52.23 +28 12 34.7 18.9   704 – Lincoln Laboratory ETS, New Mexico MPS 9372
2000 01 08.22255 06 40 31.09 +28 25 42.8 18.7   704 – Lincoln Laboratory ETS, New Mexico MPS 9372
2000 01 08.23763 06 40 30.06 +28 25 45.4 19.3   704 – Lincoln Laboratory ETS, New Mexico MPS 9372
2000 01 08.25327 06 40 28.90 +28 25 47.5 19.3   704 – Lincoln Laboratory ETS, New Mexico MPS 9372
2000 01 08.28352 06 40 26.83 +28 25 53.9 19.3   704 – Lincoln Laboratory ETS, New Mexico MPS 9372
2004 02 19.37582 12 46 43.48 +02 03 43.4 19.5 C 704 – Lincoln Laboratory ETS, New Mexico MPS 294366
2004 02 19.38836 12 46 43.04 +02 03 47.0 19.6 C 704 – Lincoln Laboratory ETS, New Mexico MPS 294366
2004 02 19.41303 12 46 42.51 +02 03 50.6 19.9 C 704 – Lincoln Laboratory ETS, New Mexico MPS 294366
2004 02 19.42666 12 46 42.18 +02 03 52.7 19.7 C 704 – Lincoln Laboratory ETS, New Mexico MPS 294366
2004 02 25.30941 12 44 01.92 +02 28 52.0 20.2 C 704 – Lincoln Laboratory ETS, New Mexico MPS 293147
2004 02 25.32154 12 44 01.61 +02 28 57.2 19.5 C 704 – Lincoln Laboratory ETS, New Mexico MPS 293147
2004 02 25.33425 12 44 01.23 +02 28 59.6 19.6 C 704 – Lincoln Laboratory ETS, New Mexico MPS 293147
2004 02 25.34572 12 44 00.71 +02 29 03.5 19.5 C 704 – Lincoln Laboratory ETS, New Mexico MPS 293147
2004 02 25.35887 12 44 00.33 +02 29 07.1 19.4 C 704 – Lincoln Laboratory ETS, New Mexico MPS 293147
2004 03 15.31462 12 29 16.89 +04 11 00.4 19.5   704 – Lincoln Laboratory ETS, New Mexico MPS 103930
2004 03 15.32542 12 29 16.24 +04 11 03.9 19.5   704 – Lincoln Laboratory ETS, New Mexico MPS 103930
2004 03 15.33610 12 29 15.65 +04 11 07.1 20.2   704 – Lincoln Laboratory ETS, New Mexico MPS 103930
2004 03 15.34687 12 29 15.06 +04 11 11.3 19.6   704 – Lincoln Laboratory ETS, New Mexico MPS 103930
2004 03 15.35788 12 29 14.32 +04 11 14.9 19.8   704 – Lincoln Laboratory ETS, New Mexico MPS 103930
2004 03 20.33707 12 24 22.87 +04 38 55.3 19.3   704 – Lincoln Laboratory ETS, New Mexico MPS 103930
2004 03 20.34770 12 24 22.22 +04 38 58.6 19.6   704 – Lincoln Laboratory ETS, New Mexico MPS 103930
2004 03 20.35849 12 24 21.54 +04 39 03.2 20.0   704 – Lincoln Laboratory ETS, New Mexico MPS 103930
2004 03 20.36913 12 24 20.90 +04 39 05.9 19.8   704 – Lincoln Laboratory ETS, New Mexico MPS 103930
2004 03 20.37988 12 24 20.22 +04 39 09.6 19.7   704 – Lincoln Laboratory ETS, New Mexico MPS 103930
2004 03 23.28383 12 21 26.65 +04 54 34.7 19.5   704 – Lincoln Laboratory ETS, New Mexico MPS 103930
2004 03 23.29708 12 21 25.79 +04 54 37.7 19.7   704 – Lincoln Laboratory ETS, New Mexico MPS 103930
2004 03 23.30860 12 21 25.11 +04 54 43.0 20.0   704 – Lincoln Laboratory ETS, New Mexico MPS 103930
2004 03 23.33069 12 21 23.68 +04 54 49.7 20.3   704 – Lincoln Laboratory ETS, New Mexico MPS 103930
2004 03 30.30674 12 14 30.02 +05 28 12.8 20.4 V 703 – Catalina Sky Survey MPS 103930
2004 03 30.31701 12 14 29.38 +05 28 15.1 19.6 V 703 – Catalina Sky Survey MPS 103930
2004 03 30.32729 12 14 28.73 +05 28 18.9 19.1 V 703 – Catalina Sky Survey MPS 103930
2004 03 30.33755 12 14 28.13 +05 28 20.4 20.4 V 703 – Catalina Sky Survey MPS 103930
2006 11 16.38914 05 25 47.66 +23 47 19.9 19.4 V 691 – Steward Observatory, Kitt Peak-Spacewatch MPS 188312
2006 11 16.40656 05 25 46.95 +23 47 22.9 20.5 V 691 – Steward Observatory, Kitt Peak-Spacewatch MPS 188312
2006 11 16.42394 05 25 46.23 +23 47 25.8 19.4 V 691 – Steward Observatory, Kitt Peak-Spacewatch MPS 188312
2006 11 18.32965 05 24 30.41 +23 52 48.0 19.2   704 – Lincoln Laboratory ETS, New Mexico MPS 188312
2006 11 18.34193 05 24 29.85 +23 52 50.8 19.1   704 – Lincoln Laboratory ETS, New Mexico MPS 188312
2006 11 18.35422 05 24 29.33 +23 52 52.9 19.6   704 – Lincoln Laboratory ETS, New Mexico MPS 188312
2006 11 18.36651 05 24 28.77 +23 52 54.4 20.0   704 – Lincoln Laboratory ETS, New Mexico MPS 188312
2006 11 21.30461 05 22 16.42 +24 01 04.8 19.0   704 – Lincoln Laboratory ETS, New Mexico MPS 188312
2006 11 21.31692 05 22 15.81 +24 01 07.1 19.4   704 – Lincoln Laboratory ETS, New Mexico MPS 188312
2006 11 21.32925 05 22 15.12 +24 01 08.9 19.5   704 – Lincoln Laboratory ETS, New Mexico MPS 188312
2006 11 21.34158 05 22 14.49 +24 01 11.7 19.4   704 – Lincoln Laboratory ETS, New Mexico MPS 188312
2006 11 21.35394 05 22 13.88 +24 01 13.7 19.6   704 – Lincoln Laboratory ETS, New Mexico MPS 188312
2006 11 24.33340 05 19 42.16 +24 09 16.6   691 – Steward Observatory, Kitt Peak-Spacewatch MPS 190262
2006 11 24.35068 05 19 41.19 +24 09 19.4   691 – Steward Observatory, Kitt Peak-Spacewatch MPS 190262
2006 11 24.36796 05 19 40.20 +24 09 22.2   691 – Steward Observatory, Kitt Peak-Spacewatch MPS 190262
2006 11 28.26931 05 15 58.97 +24 19 26.8 18.2   704 – Lincoln Laboratory ETS, New Mexico MPS 190262
2006 11 28.28206 05 15 57.97 +24 19 29.3 18.7   704 – Lincoln Laboratory ETS, New Mexico MPS 190262
2006 11 28.29476 05 15 57.20 +24 19 32.2 18.6   704 – Lincoln Laboratory ETS, New Mexico MPS 190262
2006 11 28.30749 05 15 56.44 +24 19 33.6 18.8   704 – Lincoln Laboratory ETS, New Mexico MPS 190262
2006 11 28.32023 05 15 55.55 +24 19 35.4 18.9   704 – Lincoln Laboratory ETS, New Mexico MPS 190262
2006 12 01.29808 05 12 52.74 +24 26 46.3 18.1 V G96 – Mt. Lemmon Survey MPS 190262
2006 12 01.30217 05 12 52.45 +24 26 46.8 18.1 V G96 – Mt. Lemmon Survey MPS 190262
2006 12 01.30623 05 12 52.20 +24 26 47.3 18.1 V G96 – Mt. Lemmon Survey MPS 190262
2006 12 01.31033 05 12 51.91 +24 26 48.0 18.1 V G96 – Mt. Lemmon Survey MPS 190262
2006 12 08.40153 05 05 04.55 +24 42 00.5 18.5 R 644 – Palomar Mountain/NEAT MPS 191769
2006 12 08.42237 05 05 03.08 +24 42 02.4 18.2 R 644 – Palomar Mountain/NEAT MPS 191769
2006 12 08.44321 05 05 01.61 +24 42 05.2 18.5 R 644 – Palomar Mountain/NEAT MPS 191769
2006 12 09.32417 05 04 02.35 +24 43 46.2 18.3 R 644 – Palomar Mountain/NEAT MPS 191769
2006 12 09.34496 05 04 00.88 +24 43 48.6 18.4 R 644 – Palomar Mountain/NEAT MPS 191769
2006 12 09.36549 05 03 59.43 +24 43 50.4 18.6 R 644 – Palomar Mountain/NEAT MPS 191769
2006 12 14.26873 04 58 28.80 +24 52 18.0 20.0   704 – Lincoln Laboratory ETS, New Mexico MPS 191769
2006 12 14.28189 04 58 27.82 +24 52 18.9 19.7   704 – Lincoln Laboratory ETS, New Mexico MPS 191769
2006 12 14.29503 04 58 26.94 +24 52 18.6 19.3   704 – Lincoln Laboratory ETS, New Mexico MPS 191769
2006 12 14.30825 04 58 26.01 +24 52 20.9 19.2   704 – Lincoln Laboratory ETS, New Mexico MPS 191769
2006 12 14.32147 04 58 25.10 +24 52 21.5 19.4   704 – Lincoln Laboratory ETS, New Mexico MPS 191769
2006 12 17.29590 04 55 09.80 +24 56 45.8 18.0 V G96 – Mt. Lemmon Survey MPS 191769
2006 12 17.30038 04 55 09.48 +24 56 46.2 17.9 V G96 – Mt. Lemmon Survey MPS 191769
2006 12 17.30492 04 55 09.15 +24 56 46.5 18.0 V G96 – Mt. Lemmon Survey MPS 191769
2006 12 17.30936 04 55 08.86 +24 56 46.9 17.9 V G96 – Mt. Lemmon Survey MPS 191769
2006 12 22.18862 04 50 07.28 +25 03 01.6 19.4   704 – Lincoln Laboratory ETS, New Mexico MPS 191769
2006 12 22.21384 04 50 05.65 +25 03 03.5 19.7   704 – Lincoln Laboratory ETS, New Mexico MPS 191769
2006 12 22.22646 04 50 04.85 +25 03 05.1 19.5   704 – Lincoln Laboratory ETS, New Mexico MPS 191769
2006 12 22.23908 04 50 04.06 +25 03 05.9 19.7   704 – Lincoln Laboratory ETS, New Mexico MPS 191769
2006 12 23.37624 04 48 57.88 +25 04 22.7 18.3 V G96 – Mt. Lemmon Survey MPS 191769
2006 12 23.38238 04 48 57.56 +25 04 23.0 18.3 V G96 – Mt. Lemmon Survey MPS 191769
